[[{"header":{"parameterUnit":"m.s-1","parameterCategory":1,"la1":30.2991,"la2":30.254,"lo1":-89.0895,"lo2":-89.0444,"dy":0.0017,"dx":0.0017,"nx":28,"ny":28,"refTime":"2023-08-23T03:00:00:Z","depth":0,"parameterNumber":2,"parameterNumberName":"U-component_of_WINDS"},"data":[0,0,0,0,0,0,0,0,0,0,0,0,0,0,0,0,0,0,0,0,0,0,0,0,0,0,0,0,0,0,0,0,0,0,0,0,0,0,0,0,0,0,0,0,0,0,0,0,0,0,0,0,0,0,0,0,0,0,-0.2049,-0.2048,0,-0.192,-0.1919,-0.1917,-0.1816,-0.1815,-0.1814,-0.1813,-0.1683,-0.168,-0.1678,0,0,0,0,0,0,0,0,0,0,0,0,0,-0.2212,-0.2209,-0.2049,-0.2048,-0.2046,-0.192,-0.1919,-0.1917,-0.1816,-0.1815,-0.1814,-0.1813,-0.1684,-0.1681,-0.1678,0,0,0,0,0,0,0,0,0,0,0,0,0,-0.2118,-0.2209,-0.2049,-0.1981,-0.1973,-0.1921,-0.1919,-0.1916,-0.1817,-0.1815,-0.1814,-0.1812,-0.1685,-0.1681,-0.1677,-0.1683,0,0,-0.1665,-0.1664,0,0,0,0,0,0,0,0,-0.2124,-0.2112,-0.1992,-0.1985,-0.1977,-0.1883,-0.1928,-0.1838,-0.1817,-0.1876,-0.1813,-0.1812,-0.1751,-0.1741,-0.172,-0.1677,-0.1671,-0.1665,-0.1663,-0.1661,-0.166,0,0,0,0,0,0,0,-0.213,-0.2117,-0.1998,-0.1991,-0.1981,-0.1957,-0.1942,-0.1911,-0.1823,-0.1871,-0.1863,-0.1849,-0.1746,-0.1724,-0.1717,-0.1669,-0.1665,-0.1662,-0.1659,-0.1658,-0.1628,-0.1629,0,0,0,0,0,0,-0.2147,-0.2123,-0.2002,-0.1994,-0.2048,-0.1956,-0.1939,-0.1914,-0.1823,-0.1808,-0.1851,-0.1845,-0.1732,-0.1721,-0.1712,-0.1715,-0.1661,-0.1657,-0.1655,-0.1626,-0.1628,-0.163,0,0,0,0,0,0,-0.2151,-0.2137,-0.2007,-0.2057,-0.2038,-0.1954,-0.1928,-0.1913,-0.1891,-0.1808,-0.1792,-0.1844,-0.173,-0.1717,-0.1691,-0.1709,-0.1656,-0.1652,-0.1624,-0.1627,-0.1629,-0.172,0,0,0,0,0,0,-0.2156,-0.2139,-0.2139,-0.2057,-0.2036,-0.1989,-0.1929,-0.1911,-0.1884,-0.1876,-0.1798,-0.1784,-0.1728,-0.1698,-0.1688,-0.1702,-0.1649,-0.1623,-0.1625,-0.1628,-0.1715,-0.1725,-0.1733,0,0,0,0,0,-0.2162,-0.217,-0.214,-0.2126,-0.2035,-0.199,-0.1978,-0.1913,-0.1886,-0.1887,-0.1834,-0.1786,-0.1708,-0.1696,-0.1684,-0.1698,-0.1621,-0.1625,-0.1628,-0.1711,-0.1723,-0.1733,0,0,0,0,0,0,-0.2256,-0.2158,-0.2123,-0.2105,-0.2057,-0.1973,-0.1971,-0.1928,-0.1886,-0.188,-0.1802,-0.1785,-0.1769,-0.173,-0.1718,-0.17,-0.1659,-0.166,-0.1726,-0.1737,-0.1746,-0.1756,-0.1646,0,0,0,0,0,-0.2275,-0.2245,-0.2161,-0.2153,-0.2131,-0.2056,-0.2034,-0.1988,-0.1935,-0.1914,-0.1859,-0.1811,-0.1776,-0.1754,-0.1716,-0.1709,-0.1692,-0.1713,-0.1722,-0.173,-0.1732,-0.1728,-0.1737,-0.1641,-0.1641,-0.1641,0,0,-0.2312,-0.2255,-0.2241,-0.2171,-0.2128,-0.2101,-0.2039,-0.2012,-0.1992,-0.191,-0.1883,-0.1842,-0.1782,-0.1767,-0.1757,-0.1734,-0.1755,-0.1734,-0.1741,-0.1739,-0.1733,-0.1742,-0.175,-0.1643,-0.1643,-0.1642,0,0,-0.2368,-0.2321,-0.231,-0.2269,-0.2205,-0.2156,-0.2154,-0.2077,-0.2046,-0.2018,-0.1957,-0.1933,-0.1873,-0.1834,-0.1806,-0.1851,-0.1806,-0.1841,-0.1889,-0.1886,-0.1894,-0.19,-0.1919,-0.1926,-0.1843,-0.1843,-0.1843,0,-0.2423,-0.2379,-0.231,-0.2288,-0.226,-0.2185,-0.2174,-0.2138,-0.2066,-0.2049,-0.2024,-0.195,-0.1904,-0.188,-0.1891,-0.187,-0.1867,-0.1849,-0.1898,-0.1904,-0.1909,-0.1925,-0.1932,-0.1848,-0.1847,-0.1847,-0.1846,0,-0.2452,-0.2423,-0.2422,-0.2355,-0.2326,-0.231,-0.224,-0.222,-0.2178,-0.2132,-0.2106,-0.2049,-0.2,-0.1991,-0.1949,-0.1961,-0.1949,-0.1913,-0.187,-0.1924,-0.1939,-0.1944,-0.1855,-0.1853,-0.1852,-0.185,0,0,-0.2562,-0.2458,-0.2459,-0.2429,-0.2354,-0.2331,-0.2313,-0.2265,-0.2251,-0.2204,-0.2189,-0.2141,-0.2108,-0.2077,-0.203,-0.2027,-0.207,-0.1991,-0.1988,-0.2009,-0.2083,-0.2112,-0.2121,-0.2039,-0.204,-0.2041,-0.2089,0,-0.2607,-0.2569,-0.2508,-0.2491,-0.2464,-0.2394,-0.2379,-0.2333,-0.229,-0.2262,-0.2215,-0.2183,-0.214,-0.2122,-0.2116,-0.2066,-0.2084,-0.2061,-0.2026,-0.2025,-0.2044,-0.2127,-0.2157,-0.2205,-0.2094,-0.2094,-0.2095,0,-0.2654,-0.2612,-0.2593,-0.2523,-0.251,-0.2497,-0.245,-0.2424,-0.2371,-0.234,-0.2308,-0.2257,-0.2237,-0.2197,-0.2169,-0.2155,-0.2137,-0.2111,-0.2112,-0.2107,-0.2064,-0.2127,-0.2218,-0.2227,-0.2103,-0.2102,-0.2102,0,-0.2739,-0.2678,-0.2659,-0.2635,-0.2552,-0.2546,-0.2511,-0.2457,-0.2433,-0.2393,-0.2377,-0.2335,-0.2312,-0.2281,-0.2222,-0.2198,-0.2201,-0.2156,-0.2177,-0.2179,-0.2181,-0.2182,-0.2273,-0.2168,-0.2167,-0.2167,-0.2167,0,-0.2797,-0.2788,-0.2697,-0.2685,-0.2675,-0.2605,-0.2597,-0.2556,-0.2508,-0.2489,-0.2426,-0.241,-0.2331,-0.2307,-0.226,-0.2246,-0.2235,-0.2211,-0.2199,-0.2218,-0.2221,-0.2206,-0.2201,-0.2169,-0.2169,-0.2168,-0.2168,0,-0.289,-0.2828,-0.2803,-0.2727,-0.2708,-0.2704,-0.264,-0.2628,-0.2582,-0.2559,-0.2549,-0.2478,-0.2445,-0.2383,-0.2333,-0.2302,-0.2299,-0.2277,-0.2317,-0.231,-0.2335,-0.2334,-0.242,-0.2429,-0.2317,-0.2318,-0.2319,0,-0.2931,-0.2923,-0.2847,-0.283,-0.2798,-0.277,-0.2746,-0.2678,-0.2656,-0.2597,-0.2593,-0.2556,-0.2522,-0.2475,-0.2419,-0.2382,-0.2359,-0.2392,-0.2353,-0.2373,-0.2362,-0.2364,-0.2364,-0.2401,-0.2403,-0.2404,-0.2405,0,-0.3012,-0.2983,-0.295,-0.2908,-0.2881,-0.2844,-0.2805,-0.2794,-0.2717,-0.2696,-0.2663,-0.2637,-0.2588,-0.2553,-0.2508,-0.2473,-0.2428,-0.2418,-0.2421,-0.244,-0.2465,-0.2454,-0.2343,-0.2416,-0.2415,-0.2414,-0.2414,-0.2413,-0.3082,-0.3073,-0.3019,-0.2985,-0.2948,-0.2913,-0.2899,-0.2852,-0.2822,-0.2776,-0.2738,-0.2709,-0.2659,-0.2594,-0.2563,-0.254,-0.2518,-0.2522,-0.2523,-0.2525,-0.2534,-0.2468,-0.2531,-0.2531,-0.2531,-0.253,-0.253,0,-0.3161,-0.3124,-0.3094,-0.3041,-0.3015,-0.2974,-0.2929,-0.2911,-0.2885,-0.2842,-0.2812,-0.2775,-0.2741,-0.2684,-0.2646,-0.264,-0.2618,-0.2632,-0.2633,-0.2626,-0.2555,-0.2557,-0.265,-0.265,-0.265,-0.265,-0.265,-0.265,-0.32,-0.3183,-0.3148,-0.3113,-0.3075,-0.3045,-0.3023,-0.2992,-0.2957,-0.2919,-0.2891,-0.2854,-0.2806,-0.2765,-0.2733,-0.2717,-0.2707,-0.2729,-0.2707,-0.2642,-0.2631,-0.262,-0.2621,-0.2727,-0.2727,-0.278,-0.278,-0.2781]},{"header":{"parameterUnit":"m.s-1","parameterCategory":1,"la1":30.2991,"la2":30.254,"lo1":-89.0895,"lo2":-89.0444,"dy":0.0017,"dx":0.0017,"nx":28,"ny":28,"refTime":"2023-08-23T03:00:00:Z","depth":0,"parameterNumber":3,"parameterNumberName":"V-component_of_WINDS"},"data":[0,0,0,0,0,0,0,0,0,0,0,0,0,0,0,0,0,0,0,0,0,0,0,0,0,0,0,0,0,0,0,0,0,0,0,0,0,0,0,0,0,0,0,0,0,0,0,0,0,0,0,0,0,0,0,0,0,0,3.3824,3.3824,0,3.3845,3.3846,3.3846,3.3906,3.3908,3.3909,3.391,3.3927,3.3926,3.3926,0,0,0,0,0,0,0,0,0,0,0,0,0,3.3831,3.383,3.3824,3.3824,3.3824,3.3845,3.3846,3.3846,3.3906,3.3908,3.3909,3.3911,3.3927,3.3926,3.3926,0,0,0,0,0,0,0,0,0,0,0,0,0,3.3837,3.383,3.3824,3.3857,3.386,3.3845,3.3846,3.3846,3.3906,3.3908,3.391,3.3912,3.3928,3.3927,3.3925,3.3878,0,0,3.3922,3.3921,0,0,0,0,0,0,0,0,3.3837,3.3837,3.3852,3.3855,3.3858,3.3875,3.3854,3.3857,3.3905,3.3888,3.391,3.3913,3.3908,3.3909,3.3908,3.3879,3.388,3.3922,3.3921,3.392,3.392,0,0,0,0,0,0,0,3.3836,3.3836,3.3832,3.3852,3.3856,3.387,3.3873,3.3855,3.3886,3.389,3.3894,3.3896,3.391,3.3909,3.3909,3.388,3.3922,3.3921,3.392,3.3919,3.3813,3.3811,0,0,0,0,0,0,3.3832,3.3835,3.3831,3.3833,3.3852,3.3868,3.3871,3.3868,3.3887,3.3892,3.3895,3.3899,3.391,3.391,3.391,3.3855,3.392,3.3919,3.3919,3.3815,3.3812,3.381,0,0,0,0,0,0,3.3832,3.3831,3.3831,3.3835,3.3836,3.3866,3.3861,3.3867,3.3866,3.3891,3.3896,3.3888,3.3912,3.3911,3.3886,3.3856,3.3919,3.3918,3.3818,3.3814,3.3811,3.3745,0,0,0,0,0,0,3.3831,3.383,3.3813,3.3835,3.3836,3.3807,3.3859,3.3866,3.3865,3.3871,3.3886,3.389,3.3913,3.3887,3.3885,3.3856,3.3917,3.382,3.3816,3.3812,3.375,3.374,3.3732,0,0,0,0,0,3.3832,3.3793,3.3812,3.3811,3.3816,3.3806,3.3806,3.3835,3.3862,3.3845,3.3861,3.389,3.3861,3.3884,3.3882,3.3852,3.3822,3.3817,3.3813,3.3754,3.3742,3.3732,0,0,0,0,0,0,3.3765,3.3796,3.3818,3.3785,3.3793,3.3816,3.3795,3.3821,3.3819,3.3825,3.3859,3.3862,3.3831,3.384,3.3865,3.3807,3.3846,3.3841,3.3803,3.3791,3.3782,3.378,3.3916,0,0,0,0,0,3.3747,3.3738,3.3765,3.3733,3.3736,3.3765,3.3761,3.3783,3.3791,3.3794,3.3808,3.3813,3.3806,3.3799,3.3793,3.3753,3.3756,3.3731,3.3722,3.3714,3.3708,3.3686,3.3675,3.3795,3.3795,3.3795,0,0,3.3709,3.3725,3.3716,3.3721,3.3729,3.3717,3.3767,3.3752,3.3743,3.3791,3.3768,3.3779,3.3787,3.3753,3.3739,3.3759,3.3676,3.3708,3.3702,3.37,3.368,3.3669,3.3658,3.3791,3.3792,3.3792,0,0,3.3633,3.3645,3.362,3.3627,3.364,3.366,3.3653,3.3673,3.3682,3.3661,3.3697,3.3686,3.3672,3.3676,3.3676,3.3604,3.363,3.3601,3.3551,3.353,3.352,3.3512,3.3484,3.3474,3.3595,3.3595,3.3595,0,3.3583,3.3568,3.3603,3.3586,3.3586,3.3632,3.3606,3.3611,3.362,3.3619,3.3642,3.3626,3.3634,3.3602,3.3585,3.3584,3.3577,3.3598,3.3519,3.3511,3.3504,3.3478,3.3468,3.3591,3.3592,3.3592,3.3593,0,3.3506,3.3494,3.3473,3.3482,3.348,3.3458,3.3489,3.3483,3.3505,3.3522,3.3498,3.3511,3.3508,3.3503,3.3524,3.3473,3.3485,3.3513,3.3553,3.3488,3.3464,3.3455,3.3586,3.3587,3.3589,3.3589,0,0,3.3385,3.3417,3.3407,3.3412,3.343,3.3422,3.3402,3.3402,3.3395,3.34,3.3383,3.3371,3.3398,3.3398,3.342,3.3401,3.3341,3.3432,3.3432,3.3413,3.3284,3.3261,3.3249,3.336,3.3358,3.3357,3.3283,0,3.3312,3.3282,3.3313,3.3275,3.3265,3.3309,3.3292,3.3301,3.3316,3.3308,3.3325,3.3316,3.3352,3.3352,3.3336,3.3352,3.3315,3.3358,3.3342,3.3341,3.3336,3.3237,3.3213,3.3142,3.3274,3.3273,3.3271,0,3.3222,3.3225,3.3186,3.3207,3.3204,3.3188,3.319,3.3183,3.3193,3.3206,3.3207,3.3235,3.3216,3.3257,3.323,3.3258,3.3254,3.3261,3.3259,3.3256,3.33,3.323,3.3121,3.3109,3.3257,3.3258,3.3259,0,3.3136,3.313,3.3107,3.311,3.3134,3.3121,3.3131,3.3143,3.3141,3.3143,3.3141,3.314,3.3138,3.3136,3.3163,3.319,3.3132,3.3175,3.314,3.3139,3.3123,3.3123,3.3009,3.3124,3.3125,3.3125,3.3125,0,3.3049,3.3023,3.3068,3.3053,3.3026,3.3062,3.3033,3.3047,3.3058,3.3045,3.3084,3.3071,3.3108,3.3099,3.312,3.3093,3.3093,3.3101,3.3106,3.3096,3.3095,3.3092,3.3097,3.3122,3.3123,3.3123,3.3124,0,3.2947,3.2977,3.2953,3.2979,3.2985,3.2963,3.2985,3.2971,3.299,3.2974,3.2972,3.3001,3.2992,3.302,3.3014,3.3028,3.299,3.3004,3.2986,3.299,3.2953,3.2955,3.2831,3.2816,3.2942,3.2941,3.294,0,3.2889,3.287,3.2895,3.289,3.2898,3.2889,3.2888,3.2923,3.292,3.2931,3.2915,3.2911,3.2908,3.2891,3.2911,3.2907,3.292,3.2877,3.292,3.291,3.2917,3.2917,3.2915,3.2867,3.2866,3.2865,3.2864,0,3.2781,3.2797,3.2794,3.2796,3.2794,3.2797,3.2802,3.2796,3.2834,3.2828,3.282,3.2818,3.2814,3.2808,3.2809,3.2817,3.2845,3.2851,3.2842,3.283,3.282,3.2823,3.296,3.2853,3.2854,3.2854,3.2855,3.2856,3.2698,3.2683,3.2698,3.2694,3.2702,3.2707,3.2695,3.2714,3.2709,3.2709,3.2731,3.2718,3.2729,3.2734,3.2739,3.2729,3.2749,3.2736,3.2733,3.2729,3.2722,3.2824,3.273,3.273,3.273,3.2731,3.2731,0,3.259,3.2603,3.2599,3.2606,3.2602,3.2633,3.2641,3.2635,3.2624,3.2633,3.263,3.2621,3.2616,3.2636,3.2633,3.2621,3.2634,3.2619,3.2618,3.2619,3.2705,3.2712,3.2608,3.2608,3.2608,3.2608,3.2608,3.2608,3.2534,3.2511,3.2529,3.251,3.2522,3.2512,3.2514,3.2517,3.2525,3.2513,3.251,3.2524,3.2537,3.2535,3.2531,3.2537,3.2533,3.2513,3.2523,3.2602,3.2614,3.2625,3.2631,3.2512,3.2512,3.2438,3.2437,3.2437]}]]